| time (UTC) | temp C | wind direction | speed KPH | gust KPH | rain 1hr cm | rain 24hr cm | rain mn cm | humidity % | barometer mb |
| 20260505124052 | 10 | 24 | 12.9 | 19.3 | 0.00 | 0.23 | 0.23 | 98 | 1009.8 |
| 20260505123049 | 10 | 10 | 12.9 | 20.9 | 0.00 | 0.23 | 0.23 | 98 | 1009.8 |
| 20260505122053 | 10 | 30 | 11.3 | 17.7 | 0.00 | 0.23 | 0.23 | 98 | 1009.8 |
| 20260505121054 | 10 | 15 | 11.3 | 20.9 | 0.00 | 0.23 | 0.23 | 98 | 1009.8 |
| 20260505120052 | 10 | 15 | 11.3 | 17.7 | 0.00 | 0.23 | 0.23 | 98 | 1009.8 |
| 20260505115052 | 10 | 22 | 9.7 | 14.5 | 0.00 | 0.23 | 0.23 | 98 | 1009.8 |
| 20260505114046 | 10 | 10 | 11.3 | 16.1 | 0.00 | 0.23 | 0.23 | 98 | 1009.9 |
| 20260505113050 | 10 | 28 | 9.7 | 16.1 | 0.00 | 0.23 | 0.23 | 98 | 1010.0 |
| 20260505112050 | 10 | 37 | 9.7 | 16.1 | 0.00 | 0.23 | 0.23 | 98 | 1009.9 |
| 20260505111043 | 10 | 13 | 9.7 | 14.5 | 0.00 | 0.23 | 0.23 | 98 | 1010.1 |
| 20260505102053 | 11 | 40 | 9.7 | 16.1 | 0.00 | 0.23 | 0.23 | 99 | 1010.2 |
| 20260505101056 | 10 | 27 | 8.0 | 19.3 | 0.00 | 0.23 | 0.23 | 99 | 1010.2 |
| 20260505100053 | 10 | 24 | 9.7 | 16.1 | 0.03 | 0.23 | 0.23 | 99 | 1010.2 |
| 20260505095040 | 10 | 37 | 11.3 | 16.1 | 0.03 | 0.23 | 0.23 | 99 | 1010.3 |
| 20260505093039 | 10 | 32 | 11.3 | 19.3 | 0.03 | 0.23 | 0.23 | 98 | 1010.2 |
| 20260505092055 | 10 | 32 | 12.9 | 22.5 | 0.03 | 0.23 | 0.23 | 98 | 1010.2 |
| 20260505091043 | 10 | 23 | 11.3 | 17.7 | 0.03 | 0.23 | 0.23 | 98 | 1010.2 |
| 20260505085055 | 10 | 2 | 11.3 | 19.3 | 0.00 | 0.23 | 0.20 | 98 | 1010.3 |
| 20260505084055 | 10 | 21 | 9.7 | 16.1 | 0.00 | 0.23 | 0.20 | 98 | 1010.3 |
| 20260505083058 | 10 | 12 | 12.9 | 19.3 | 0.00 | 0.23 | 0.20 | 98 | 1010.3 |
| 20260505081056 | 11 | 4 | 8.0 | 16.1 | 0.00 | 0.23 | 0.20 | 98 | 1010.4 |
| 20260505080056 | 11 | 38 | 9.7 | 16.1 | 0.00 | 0.23 | 0.20 | 98 | 1010.4 |
| 20260505075053 | 11 | 36 | 8.0 | 16.1 | 0.00 | 0.23 | 0.20 | 98 | 1010.4 |
| 20260505074052 | 11 | 18 | 8.0 | 14.5 | 0.00 | 0.23 | 0.20 | 98 | 1010.4 |
| 20260505073055 | 11 | 13 | 9.7 | 17.7 | 0.00 | 0.23 | 0.20 | 98 | 1010.4 |
| 20260505072055 | 11 | 28 | 9.7 | 14.5 | 0.00 | 0.23 | 0.20 | 98 | 1010.4 |
| 20260505071057 | 11 | 21 | 8.0 | 12.9 | 0.00 | 0.23 | 0.20 | 98 | 1010.4 |
| 20260505070047 | 11 | 13 | 6.4 | 11.3 | 0.00 | 0.23 | 0.20 | 98 | 1010.4 |
| 20260505063054 | 11 | 20 | 8.0 | 14.5 | 0.03 | 0.23 | 0.20 | 98 | 1010.4 |
| 20260505062051 | 11 | 8 | 11.3 | 19.3 | 0.05 | 0.23 | 0.20 | 98 | 1010.4 |
| 20260505061054 | 11 | 357 | 9.7 | 14.5 | 0.05 | 0.23 | 0.20 | 98 | 1010.4 |
| 20260505060054 | 11 | 5 | 8.0 | 12.9 | 0.05 | 0.23 | 0.20 | 98 | 1010.5 |
| 20260505055044 | 11 | 24 | 6.4 | 11.3 | 0.10 | 0.23 | 0.20 | 98 | 1010.5 |
| 20260505054058 | 11 | 18 | 6.4 | 11.3 | 0.10 | 0.20 | 0.18 | 98 | 1010.5 |
| 20260505053055 | 11 | 6 | 6.4 | 11.3 | 0.15 | 0.20 | 0.18 | 98 | 1010.5 |
| 20260505052054 | 11 | 348 | 6.4 | 8.0 | 0.15 | 0.20 | 0.18 | 98 | 1010.5 |
| 20260505051058 | 11 | 348 | 6.4 | 8.0 | 0.15 | 0.18 | 0.15 | 98 | 1010.4 |
| 20260505041055 | 11 | 326 | 0.0 | 0.0 | 0.03 | 0.05 | 0.03 | 97 | 1010.6 |
| 20260505040054 | 11 | 314 | 3.2 | 4.8 | 0.03 | 0.05 | 0.03 | 97 | 1010.6 |
| 20260505035058 | 11 | 298 | 0.0 | 0.0 | 0.00 | 0.03 | 0.00 | 97 | 1010.7 |
| 20260505034056 | 11 | 307 | 0.0 | 0.0 | 0.00 | 0.03 | 0.00 | 97 | 1010.6 |
| 20260505033058 | 11 | 198 | 1.6 | 4.8 | 0.00 | 0.03 | 0.00 | 97 | 1010.7 |
| 20260505032056 | 11 | 207 | 1.6 | 4.8 | 0.00 | 0.03 | 0.00 | 97 | 1010.7 |
| 20260505031056 | 11 | 207 | 1.6 | 4.8 | 0.00 | 0.03 | 0.00 | 97 | 1010.9 |
| 20260505030055 | 11 | 231 | 3.2 | 6.4 | 0.00 | 0.03 | 0.00 | 97 | 1011.0 |
| 20260505025055 | 11 | 209 | 1.6 | 4.8 | 0.00 | 0.03 | 0.00 | 97 | 1011.1 |
| 20260505024058 | 10 | 174 | 3.2 | 4.8 | 0.00 | 0.03 | 0.00 | 97 | 1011.1 |
| 20260505023059 | 10 | 125 | 6.4 | 9.7 | 0.00 | 0.03 | 0.00 | 97 | 1011.2 |
| 20260505022031 | 10 | 116 | 6.4 | 6.4 | 0.00 | 0.03 | 0.00 | 97 | 1011.2 |
| 20260505021058 | 11 | 143 | 3.2 | 6.4 | 0.00 | 0.03 | 0.00 | 97 | 1011.2 |
| 20260505020059 | 11 | 148 | 0.0 | 0.0 | 0.00 | 0.03 | 0.00 | 97 | 1011.1 |
| 20260505014056 | 11 | 354 | 0.0 | 0.0 | 0.00 | 0.03 | 0.00 | 97 | 1011.2 |
| 20260505012056 | 11 | 281 | 0.0 | 0.0 | 0.00 | 0.03 | 0.00 | 97 | 1011.1 |
| 20260505010055 | 11 | 43 | 0.0 | 0.0 | 0.00 | 0.03 | 0.00 | 97 | 1011.3 |
| 20260505005100 | 11 | 123 | 1.6 | 4.8 | 0.00 | 0.03 | 0.00 | 97 | 1011.4 |
| 20260505004056 | 11 | 194 | 3.2 | 4.8 | 0.00 | 0.03 | 0.00 | 97 | 1011.5 |
| 20260505003058 | 11 | 236 | 3.2 | 6.4 | 0.00 | 0.03 | 0.00 | 97 | 1011.6 |
| 20260505002055 | 11 | 246 | 3.2 | 6.4 | 0.00 | 0.03 | 0.00 | 97 | 1011.7 |
| 20260505000105 | 10 | 27 | 0.0 | 0.0 | 0.00 | 0.03 | 0.00 | 97 | 1011.8 |
| 20260504234107 | 10 | 110 | 4.8 | 4.8 | 0.00 | 0.03 | 0.00 | 97 | 1012.0 |
| 20260504233107 | 10 | 114 | 4.8 | 6.4 | 0.00 | 0.03 | 0.00 | 96 | 1012.0 |
| 20260504232108 | 10 | 130 | 4.8 | 6.4 | 0.00 | 0.03 | 0.00 | 96 | 1012.0 |
| 20260504231107 | 10 | 151 | 4.8 | 6.4 | 0.00 | 0.03 | 0.00 | 95 | 1012.2 |
| 20260504230105 | 11 | 111 | 1.6 | 4.8 | 0.00 | 0.03 | 0.00 | 95 | 1012.2 |
| 20260504225109 | 11 | 36 | 0.0 | 0.0 | 0.00 | 0.03 | 0.00 | 95 | 1012.3 |
| 20260504224109 | 11 | 305 | 0.0 | 0.0 | 0.00 | 0.03 | 0.00 | 95 | 1012.4 |
| 20260504223107 | 11 | 311 | 0.0 | 0.0 | 0.00 | 0.03 | 0.00 | 95 | 1012.5 |
| 20260504222109 | 11 | 322 | 0.0 | 0.0 | 0.00 | 0.03 | 0.00 | 95 | 1012.6 |
| 20260504221109 | 11 | 262 | 0.0 | 0.0 | 0.00 | 0.03 | 0.00 | 95 | 1012.6 |
| 20260504215113 | 11 | 168 | 1.6 | 4.8 | 0.00 | 0.03 | 0.03 | 95 | 1012.7 |
| 20260504214114 | 11 | 162 | 0.0 | 0.0 | 0.00 | 0.03 | 0.03 | 94 | 1012.8 |
| 20260504213114 | 11 | 163 | 0.0 | 0.0 | 0.00 | 0.03 | 0.03 | 94 | 1012.8 |
| 20260504212114 | 11 | 190 | 1.6 | 4.8 | 0.00 | 0.03 | 0.03 | 94 | 1012.9 |
| 20260504211114 | 11 | 210 | 0.0 | 0.0 | 0.00 | 0.03 | 0.03 | 94 | 1013.0 |
| 20260504210115 | 11 | 206 | 1.6 | 6.4 | 0.00 | 0.03 | 0.03 | 94 | 1013.0 |
| 20260504205113 | 11 | 199 | 1.6 | 4.8 | 0.00 | 0.03 | 0.03 | 94 | 1013.1 |
| 20260504204114 | 11 | 144 | 0.0 | 0.0 | 0.00 | 0.03 | 0.03 | 94 | 1013.1 |
| 20260504201121 | 11 | 141 | 6.4 | 8.0 | 0.00 | 0.03 | 0.03 | 94 | 1013.1 |
| 20260504200114 | 11 | 136 | 8.0 | 9.7 | 0.00 | 0.03 | 0.03 | 93 | 1013.0 |
| 20260504195114 | 11 | 119 | 4.8 | 8.0 | 0.00 | 0.03 | 0.03 | 93 | 1012.9 |
| 20260504194111 | 11 | 129 | 4.8 | 6.4 | 0.00 | 0.03 | 0.03 | 93 | 1012.9 |
| 20260504192114 | 12 | 152 | 3.2 | 4.8 | 0.00 | 0.03 | 0.03 | 93 | 1012.7 |
| 20260504190112 | 12 | 150 | 6.4 | 8.0 | 0.00 | 0.03 | 0.03 | 92 | 1012.6 |
| 20260504184108 | 12 | 153 | 6.4 | 9.7 | 0.00 | 0.03 | 0.03 | 90 | 1012.5 |
| 20260504183109 | 13 | 145 | 6.4 | 9.7 | 0.00 | 0.03 | 0.03 | 89 | 1012.5 |
| 20260504182107 | 13 | 163 | 4.8 | 9.7 | 0.00 | 0.03 | 0.03 | 88 | 1012.5 |
| 20260504181110 | 13 | 165 | 4.8 | 9.7 | 0.00 | 0.03 | 0.03 | 88 | 1012.5 |
| 20260504180109 | 13 | 143 | 8.0 | 16.1 | 0.00 | 0.03 | 0.03 | 89 | 1012.6 |
| 20260504175108 | 13 | 161 | 8.0 | 16.1 | 0.00 | 0.03 | 0.03 | 89 | 1012.6 |
| 20260504174106 | 13 | 157 | 9.7 | 16.1 | 0.00 | 0.03 | 0.03 | 90 | 1012.4 |
| 20260504173109 | 13 | 148 | 9.7 | 17.7 | 0.00 | 0.03 | 0.03 | 91 | 1012.4 |
| 20260504172105 | 13 | 143 | 9.7 | 16.1 | 0.00 | 0.03 | 0.03 | 91 | 1012.5 |
| 20260504171106 | 13 | 135 | 9.7 | 12.9 | 0.00 | 0.03 | 0.03 | 91 | 1012.5 |
| 20260504160105 | 14 | 158 | 11.3 | 19.3 | 0.00 | 0.03 | 0.03 | 90 | 1012.9 |
| 20260504141103 | 15 | 123 | 4.8 | 9.7 | 0.00 | 0.00 | 0.00 | 86 | 1013.2 |
| 20260504140113 | 15 | 29 | 0.0 | 0.0 | 0.00 | 0.00 | 0.00 | 86 | 1013.3 |